Flag for U.S.A. Weather past 2 weeks in Toccoa, Georgia, U.S.A.

Now
84 °F

Sunny.


Feels Like: 87 °F
Forecast: 67 / 87 °F
Wind: 10 mph from West

Location: Clemson-Oconee County Airport

Current Time: Jul 1, 2015 at 4:11:23 PM

Latest Report: Jul 1, 2015 at 2:54 PM


Visibility: 10 mi

Pressure: 29.99 "Hg

Humidity: 57%

Dew point: 67 °F

Location of ToccoaLocation

Historic Weather in Toccoa — Graph

°F

Toccoa temperature yesterday

Maximum temperature yesterday: 87 °F (at 12:54 PM)
Minimum temperature yesterday: 72 °F (at 3:54 AM)
Average temperature yesterday: 77 °F

Past Weeks' High & Low Weather Summary

 TemperatureHumidityPressure
High98 °F (Jun 18, 3:54 PM)90% (Jun 27, 2:54 AM)30.11 "Hg (Jun 27, 2:54 AM)
Low65 °F (Jun 29, 5:54 AM)32% (Jun 22, 4:54 PM)29.80 "Hg (Jun 27, 5:54 PM)
Average82 °F62%29.99 "Hg
* Reported Jun 16 2:54 PM — Jul 1 2:54 PM, Toccoa, Weather by CustomWeather, © 2015

Note: Actual official high and low records may vary slightly from our data, if they occured in-between our weather recording intervals... More about our weather records

Advertising

Toccoa weather history for previous 24 hours

 ConditionsComfort  
Time TempWeatherWind HumidityBarometerVisibility
2:54 PM
Wed, Jul 1
84 °FSunny.10 mph57%29.99 "Hg10 mi
1:54 PM84 °FSunny.12 mph55%30.00 "Hg10 mi
12:54 PM82 °FSunny.8 mph63%30.01 "Hg9 mi
11:54 AM80 °FSunny.7 mph67%30.01 "Hg10 mi
10:54 AM79 °FSunny.12 mph67%30.01 "Hg10 mi
9:54 AM75 °FSunny.5 mph74%30.00 "Hg10 mi
8:54 AM73 °FSunny.No wind79%29.99 "Hg10 mi
7:54 AM71 °FSunny.5 mph81%29.98 "Hg9 mi
6:54 AM70 °FClear.5 mph81%29.97 "Hg9 mi
5:54 AM70 °FClear.7 mph79%29.96 "Hg10 mi
4:54 AM70 °FClear.7 mph81%29.94 "Hg10 mi
3:54 AM70 °FClear.5 mph84%29.95 "Hg10 mi
2:54 AM71 °FClear.6 mph84%29.96 "Hg10 mi
1:54 AM72 °FClear.8 mph81%29.96 "Hg10 mi
11:54 PM
Tue, Jun 30
74 °FPartly cloudy.No wind74%29.97 "Hg10 mi
10:54 PM75 °FPassing clouds.6 mph69%29.97 "Hg10 mi
9:54 PM76 °FClear.6 mph74%29.94 "Hg10 mi
8:54 PM77 °FSunny.6 mph77%29.91 "Hg10 mi
7:54 PM79 °FSunny.5 mph69%29.91 "Hg10 mi
6:54 PM81 °FSunny.5 mph65%29.90 "Hg10 mi
5:54 PM82 °FSunny.7 mph60%29.90 "Hg10 mi
4:54 PM79 °FSunny.7 mph69%29.92 "Hg10 mi
Weather by CustomWeather, © 2015

See weather overviewHow to use our weather pages